Regional Weather Roundup
Issued by NWS

Home | Current Version | Previous Version | Graphics & Text | Print | Product List | Glossary On
Versions: 1 2 3 4 5 6 7 8 9 10 11 12 13 14 15 16 17 18 19 20 21 22 23 24 25 26 27 28 29 30 31 32 33 34 35 36 37 38 39 40 41 42 43 44 45 46 47 48 49 50
000
ASUS43 KMKX 250311
RWRWI

WISCONSIN REGIONAL WEATHER ROUNDUP
NATIONAL WEATHER SERVICE MILWAUKEE/SULLIVAN WI
1000 PM CDT FRI APR 24 2015

NOTE: "FAIR" INDICATES FEW OR NO CLOUDS BELOW 12,000 FEET WITH NO
SIGNIFICANT WEATHER AND/OR OBSTRUCTIONS TO VISIBILITY.

WIZ001-002-006>008-014>016-023>028-250400-
NORTHWEST WISCONSIN

CITY           SKY/WX    TMP DP  RH WIND       PRES   REMARKS
SUPERIOR ARPT  CLOUDY    35  30  83 NE13G23   29.95S WCI  26
ASHLAND        CLOUDY    36  30  79 NE8       29.96F WCI  30
HAYWARD        CLOUDY    41  32  70 E8        29.90S
SIREN          CLOUDY    46  27  46 E5        29.88S
CUMBERLAND     CLOUDY    43  30  61 E6        29.87S
RICE LAKE      CLOUDY    48  28  46 SE9       29.89S
CHETEK         CLOUDY    47  31  55 SE12G18   29.88S
LADYSMITH      CLOUDY    46  26  44 E6        29.91R
EAU CLAIRE     CLOUDY    44  35  70 E14       29.89R
MENOMONIE      DRIZZLE   45  37  72 E10       29.88R
NEW RICHMOND   CLOUDY    45  35  68 E9G17     29.85S
OSCEOLA        CLOUDY    47  37  66 E13       29.87S
$$

WIZ003>005-009-010-017-018-250400-
NORTH CENTRAL WISCONSIN

CITY           SKY/WX    TMP DP  RH WIND       PRES   REMARKS
MANITOWISH WTR CLOUDY    41  30  63 E5        29.93S
ARBOR VITAE    CLOUDY    43  30  61 SE8       29.94R
WOODRUFF       CLOUDY    43  30  61 SE8       29.94R
RHINELANDER    CLOUDY    41  28  60 SE9       29.96R
EAGLE RIVER    CLOUDY    41  28  60 SE6       29.95R
LAND O LAKES   CLOUDY    42  28  56 CALM      29.96R
PHILLIPS       CLOUDY    43  27  52 SE5       29.91R
TOMAHAWK       CLOUDY    41  30  64 SE3       29.95R
MEDFORD        CLOUDY    45  29  55 SE14G22   29.92R
MERRILL        CLOUDY    40  35  80 SE8       29.95S WCI  35
$$

WIZ029-030-035-036-043>047-250400-
CENTRAL WISCONSIN

CITY           SKY/WX    TMP DP  RH WIND       PRES   REMARKS
WAUSAU         LGT RAIN  41  36  82 E7        29.95R
MOSINEE        DRIZZLE   43  30  61 E9        29.96R
MARSHFIELD     LGT RAIN  43  31  62 SE14      29.93R
STEVENS POINT  CLOUDY    40  25  55 E12       29.97R WCI  33
WAUPACA        CLOUDY    44  26  48 SE7       29.98S
WAUTOMA        CLOUDY    40  38  93 E7        29.99R
WISC RAPIDS    LGT RAIN  42  36  79 SE8       29.95S
CAMP DOUGLAS   CLOUDY    41  41 100 E15       29.92R
$$

WIZ011>013-019>022-031-037>040-048>050-250400-
NORTHEAST WISCONSIN

CITY           SKY/WX    TMP DP  RH WIND       PRES   REMARKS
ANTIGO         CLOUDY    39  25  57 E9        29.97S WCI  33
SHAWANO        CLOUDY    42  23  46 E7        29.99S
OCONTO         CLOUDY    39  22  50 CALM      30.01S
STURGEON BAY   CLOUDY    37  19  48 E9        30.02S WCI  31
GREEN BAY      CLOUDY    42  21  43 SE5       29.99F
MANITOWOC      CLOUDY    39  27  62 S5        30.01R
APPLETON       CLOUDY    39  21  48 SE7       29.99S WCI  34
CLINTONVILLE   CLOUDY    43  21  42 SE7       29.98S
OSHKOSH        CLOUDY    40  33  76 SE12      29.98R WCI  33
$$

WIZ032>034-041-042-053>061-250400-
SOUTHWEST WISCONSIN

CITY           SKY/WX    TMP DP  RH WIND       PRES   REMARKS
LA CROSSE      LGT RAIN  45  39  79 SE6       29.88R
SPARTA         CLOUDY    42  37  84 E15       29.91R
VIROQUA        CLOUDY    41  38  92 E16       29.86S
BOSCOBEL       CLOUDY    44  38  79 NE6       29.88S
PRAIRIE DU CHI CLOUDY    44  37  75 E9        29.84S
PLATTEVILLE    CLOUDY    43  39  86 E15G23    29.85R
$$

WIZ056-057-062-063-064-067-068-250400-
SOUTH CENTRAL WISCONSIN

CITY           SKY/WX    TMP DP  RH WIND       PRES   REMARKS
REEDSBURG      CLOUDY    40  37  87 E8        29.92R WCI  35
BARABOO/DELLS  CLOUDY    39  35  84 E14       29.92R WCI  31
LONE ROCK      CLOUDY    43  37  79 E16       29.90R
MINERAL POINT  CLOUDY    43  37  81 E14       29.87R
MADISON        CLOUDY    40  34  79 E15       29.92S WCI  32
MIDDLETON      CLOUDY    41  36  80 E9        29.92R
WATERTOWN      CLOUDY    38  36  92 E10       29.93R WCI  31
MONROE         CLOUDY    41  36  81 E12       29.88S
JANESVILLE     CLOUDY    41  36  81 E8        29.92R
$$

WIZ051-052-058>065-066-070>072-250400-
SOUTHEAST WISCONSIN

CITY           SKY/WX    TMP DP  RH WIND       PRES   REMARKS
MILWAUKEE      CLOUDY    39  33  79 NE10      29.96F WCI  32
WAUKESHA       CLOUDY    36  32  87 NE12      29.95S WCI  27
MILWAUKEE/TIMM CLOUDY    36  34  93 NE9       29.96F WCI  29
RACINE         CLOUDY    40  33  76 NE15      29.96F WCI  32
BURLINGTON     CLOUDY    38  33  80 E7        29.94R WCI  33
KENOSHA        CLOUDY    41  35  79 E15       29.93F
FOND DU LAC    LGT RAIN  39  33  79 SE8       29.99R WCI  33
SHEBOYGAN      LGT RAIN  37  31  78 CALM      30.00S
WEST BEND      DRIZZLE   36  32  87 NE7       29.98F WCI  30
JUNEAU         CLOUDY    38  33  82 NE13      29.95S WCI  30
$$

LSZ147-162-250400-
LAKE SUPERIOR

STATION/POSITION TIME  TEMP    WIND        PRES    WAVE
                       AIR SEA DIR/SP/G            HT/PER
                 (UTC) (F)     (DEG/KT/KT) (MB)    (FT/S)
W MID LAKE BUOY  0250   35 34   90/ 12/ 16 1018.0R   3/ 5
DEVILS ISLAND    0300   36      70/ 15/ 17 1016.1F
PORT WING        0200   38      40/ 13/ 17 1014.6R
SAXON HARBOR     0200   38      60/  3/  8 1014.2
$$

LMZ867-665-643>646-250400-
LAKE MICHIGAN

STATION/POSITION TIME  TEMP    WIND        PRES    WAVE
                       AIR SEA DIR/SP/G            HT/PER
                 (UTC) (F)     (DEG/KT/KT) (MB)    (FT/S)
CHAMBERS ISLAND  0200   39      70/  7/ 11 1016.3F
NORTHPORT PIER   0200   37     110/  4/  6 1016.6F
SISTER BAY       0147   37     130/  6/ 10   N/A
KEWAUNEE LAKESHO 0200   38      40/  6/  9 1015.0F
SHEBOYGAN LAKESH 0300   38      50/  1/  3 1017.0R
PORT WASHINGTON  0240   38      40/  5/  7 1016.3S
MILWAUKEE LAKESH 0200   39      40/  6/  7   N/A
KENOSHA   LAKESH 0300   40      70/ 15/ 19 1013.9S
$$

TC  - TEMPERATURE IN CELSIUS
VSB - VISIBILITY IN STATUTE MILES
WCI - WIND CHILL INDEX
HX  - HEAT INDEX



USA.gov is the U.S. government's official web portal to all federal, state and local government web resources and services.